Arklow Spray — C6VK8 — position and weather

sailwx.info

Track history (hours):
 
Tides and Currents Weather Stations Pressure Air Temp Water Temp Dewpoint Dewpoint Depression Visibility Wind Speed Wind Dir Waves Ship Positions

Arklow Spray

Last reported at 2014-Oct-31 07:28 UTC. Time now 2014-Oct-31 08:30 UTC.
Position N 54°37' W 005°55'.

Length 90 m; draft 4.7 m.

Type: Cargo ship. MMSI: 309914000.

Date/timePositionNaut miles runAvg speedWind from/ knotsBaromVisibWave heightAir tempDewpointWater temp
2014-Oct-31 07:28N 54°37' W 005°55'0 0.0
2014-Oct-31 06:22N 54°37' W 005°55'0 0.0
2014-Oct-31 04:04N 54°37' W 005°55'0 0.0
2014-Oct-31 03:04N 54°37' W 005°55'0 0.0
2014-Oct-31 02:16N 54°37' W 005°55'0 0.0
2014-Oct-30 23:22N 54°37' W 005°55'0 0.0
2014-Oct-30 17:22N 54°37' W 005°55'0 0.0
2014-Oct-30 10:28N 54°37' W 005°55'0 0.0
2014-Oct-30 08:28N 54°37' W 005°55'0 0.0
2014-Oct-30 07:28N 54°37' W 005°55'0 0.0
2014-Oct-30 05:16N 54°37' W 005°55'0 0.0
2014-Oct-30 04:21N 54°37' W 005°55'0 0.0
2014-Oct-29 23:21N 54°37' W 005°55'0 0.0
2014-Oct-29 17:23N 54°37' W 005°54'0 0.0
2014-Oct-29 16:08N 54°37' W 005°54'0 0.0
2014-Oct-29 12:11N 54°37' W 005°54'0 0.0
2014-Oct-29 11:32N 54°37' W 005°54'0 0.0
2014-Oct-29 10:23N 54°37' W 005°54'0 0.0
2014-Oct-29 06:14N 54°37' W 005°54'0 0.0
2014-Oct-29 05:29N 54°37' W 005°54'0 0.0
2014-Oct-29 04:11N 54°37' W 005°54'0 0.0
2014-Oct-29 03:05N 54°37' W 005°54'0 0.0
2014-Oct-28 23:22N 54°37' W 005°54'3 4.1
2014-Oct-28 22:30N 54°40' W 005°51'6 6.2
2014-Oct-28 21:30N 54°41' W 005°40'0 0.0
2014-Oct-28 20:33N 54°41' W 005°40'0 0.0
2014-Oct-28 19:30N 54°41' W 005°40'0 0.0
2014-Oct-28 18:33N 54°41' W 005°40'0 0.0
2014-Oct-28 17:33N 54°41' W 005°40'0 0.0
2014-Oct-28 16:33N 54°41' W 005°40'0 0.0
2014-Oct-28 15:33N 54°41' W 005°40'0 0.0
2014-Oct-28 14:33N 54°41' W 005°40'0 0.0
2014-Oct-28 13:33N 54°41' W 005°40'0 0.0
2014-Oct-28 12:33N 54°41' W 005°40'0 0.0
2014-Oct-28 11:33N 54°41' W 005°40'0 0.0
2014-Oct-28 10:30N 54°41' W 005°40'0 0.0
2014-Oct-28 09:33N 54°41' W 005°40'0 0.0
2014-Oct-28 08:33N 54°41' W 005°40'0 0.1
2014-Oct-28 07:30N 54°41' W 005°40'0 0.1
2014-Oct-28 06:33N 54°41' W 005°40'0 0.0
2014-Oct-28 05:33N 54°41' W 005°40'0 0.0
2014-Oct-28 04:33N 54°41' W 005°40'0 0.0
2014-Oct-28 03:33N 54°41' W 005°40'0 0.0
2014-Oct-28 02:33N 54°41' W 005°40'0 0.0
2014-Oct-28 01:33N 54°41' W 005°40'0 0.0
2014-Oct-28 00:33N 54°41' W 005°40'0 0.0
2014-Oct-27 23:33N 54°41' W 005°40'0 0.0
2014-Oct-27 22:30N 54°41' W 005°40'0 0.0
2014-Oct-27 21:33N 54°41' W 005°40'0 0.0
2014-Oct-27 20:33N 54°41' W 005°40'0 0.0
2014-Oct-27 19:33N 54°41' W 005°40'0 0.0
2014-Oct-27 18:33N 54°41' W 005°40'2 1.6
2014-Oct-27 17:33N 54°42' W 005°38'9 9.3
2014-Oct-27 16:34N 54°40' W 005°22'1212.2
2014-Oct-27 15:33N 54°28' W 005°15'1111.3
2014-Oct-27 14:33N 54°17' W 005°14'257 7.8
2014-Oct-26 05:27N 50°07' W 003°37'9 9.6
2014-Oct-26 04:33N 50°09' W 003°24'1110.9
2014-Oct-26 03:33N 50°11' W 003°07'1212.0
2014-Oct-26 02:32N 50°13' W 002°48'12010.0
2014-Oct-25 14:31N 50°35' E 000°17'1111.4
2014-Oct-25 13:33N 50°38' E 000°33'1010.5
2014-Oct-25 12:33N 50°44' E 000°47'3010.0
2014-Oct-25 09:32N 51°02' E 001°24'1313.6
2014-Oct-25 08:33N 51°11' E 001°41'1313.2
2014-Oct-25 07:33N 51°22' E 001°52'1211.9
2014-Oct-25 06:33N 51°32' E 002°03'47 9.4
2014-Oct-25 01:33N 52°03' E 003°01'9 9.1
2014-Oct-25 00:33N 52°03' E 003°15'19 9.6
2014-Oct-24 22:33N 52°04' E 003°47'10 9.9
2014-Oct-24 21:33N 52°00' E 004°02'1212.0
2014-Oct-24 20:33N 51°54' E 004°18'1 1.0
2014-Oct-24 19:27N 51°53' E 004°17'0 0.0
2014-Oct-24 18:30N 51°53' E 004°17'0 0.0
2014-Oct-24 17:30N 51°53' E 004°17'0 0.0
2014-Oct-24 16:33N 51°53' E 004°17'0 0.0
2014-Oct-24 15:33N 51°53' E 004°17'0 0.0
2014-Oct-24 14:15N 51°53' E 004°17'0 0.0
2014-Oct-24 13:33N 51°53' E 004°17'0 0.0
2014-Oct-24 12:33N 51°53' E 004°17'0 0.0
2014-Oct-24 11:33N 51°53' E 004°17'0 0.0
2014-Oct-24 10:33N 51°53' E 004°17'0 0.0
2014-Oct-24 09:33N 51°53' E 004°17'3 2.9
2014-Oct-24 08:34N 51°56' E 004°14'8 8.3
2014-Oct-24 07:33N 51°60' E 004°02'9 9.3
2014-Oct-24 06:33N 52°00' E 003°47'6310.3
2014-Oct-24 00:26N 51°42' E 002°09'1012.0
2014-Oct-23 23:34N 51°36' E 001°55'1111.1
2014-Oct-23 22:33N 51°31' E 001°39'10 9.8
2014-Oct-23 21:34N 51°28' E 001°24'9 9.3
2014-Oct-23 20:33N 51°29' E 001°08'10 9.8
2014-Oct-23 19:34N 51°29' E 000°53'1111.1
2014-Oct-23 18:34N 51°30' E 000°35'1010.0
2014-Oct-23 17:34N 51°27' E 000°20'0 0.0
2014-Oct-23 16:34N 51°27' E 000°20'0 0.0
2014-Oct-23 15:34N 51°27' E 000°20'0 0.0
2014-Oct-23 14:34N 51°27' E 000°20'0 0.0
2014-Oct-23 13:34N 51°27' E 000°20'0 0.0
2014-Oct-23 12:34N 51°27' E 000°20'0 0.0
2014-Oct-23 11:34N 51°27' E 000°20'0 0.0
2014-Oct-23 10:34N 51°27' E 000°20'0 0.0
2014-Oct-23 09:34N 51°27' E 000°20'0 0.0
2014-Oct-23 08:34N 51°27' E 000°20'0 0.0
2014-Oct-23 07:34N 51°27' E 000°20'0 0.0
2014-Oct-23 06:34N 51°27' E 000°20'0 0.0
2014-Oct-23 05:34N 51°27' E 000°20'0 0.0
2014-Oct-23 04:34N 51°27' E 000°20'0 0.0
2014-Oct-23 03:34N 51°27' E 000°20'0 0.0
2014-Oct-23 02:34N 51°27' E 000°20'0 0.0
2014-Oct-23 01:34N 51°27' E 000°20'0 0.0
2014-Oct-23 00:34N 51°27' E 000°20'0 0.0
2014-Oct-22 23:34N 51°27' E 000°20'0 0.0
2014-Oct-22 22:34N 51°27' E 000°20'0 0.0
2014-Oct-22 21:34N 51°27' E 000°20'0 0.0
2014-Oct-22 20:34N 51°27' E 000°20'0 0.0
2014-Oct-22 19:34N 51°27' E 000°20'0 0.0
2014-Oct-22 18:33N 51°27' E 000°20'0 0.0
2014-Oct-22 17:34N 51°27' E 000°20'0 0.0
2014-Oct-22 16:33N 51°27' E 000°20'0 0.0
2014-Oct-22 15:33N 51°27' E 000°20'0 0.0
2014-Oct-22 14:33N 51°27' E 000°20'0 0.0
2014-Oct-22 13:33N 51°27' E 000°20'0 0.0
2014-Oct-22 12:33N 51°27' E 000°20'0 0.0
2014-Oct-22 11:33N 51°27' E 000°20'0 0.0
2014-Oct-22 10:33N 51°27' E 000°20'0 0.0
2014-Oct-22 09:33N 51°27' E 000°20'0 0.0
2014-Oct-22 08:33N 51°27' E 000°20'0 0.0
2014-Oct-22 07:33N 51°27' E 000°20'0 0.0
2014-Oct-22 06:33N 51°27' E 000°20'0 0.0
2014-Oct-22 05:33N 51°27' E 000°20'0 0.0
2014-Oct-22 04:33N 51°27' E 000°20'3 2.8
2014-Oct-22 03:34N 51°27' E 000°25'7 7.2
2014-Oct-22 02:34N 51°30' E 000°35'8 8.2
2014-Oct-22 01:34N 51°30' E 000°48'7 6.6
2014-Oct-22 00:33N 51°29' E 000°59'8 7.8
2014-Oct-21 23:34N 51°29' E 001°11'8 7.9
2014-Oct-21 22:33N 51°29' E 001°24'6 6.5
2014-Oct-21 21:33N 51°25' E 001°32'3 2.9
2014-Oct-21 20:34N 51°23' E 001°35'8 7.6
2014-Oct-21 19:33N 51°15' E 001°37'7 7.1
2014-Oct-21 18:33N 51°08' E 001°33'5 5.1
2014-Oct-21 17:33N 51°04' E 001°37'8 8.1
2014-Oct-21 16:32N 50°57' E 001°29'  
Track history (hours):
 
Tides and Currents Weather Stations Pressure Air Temp Water Temp Dewpoint Dewpoint Depression Visibility Wind Speed Wind Dir Waves Ship Positions

Arklow Spray

Last reported at 2014-Oct-31 07:28 UTC. Time now 2014-Oct-31 08:30 UTC.
Position N 54°37' W 005°55'.

Length 90 m; draft 4.7 m.

Type: Cargo ship. MMSI: 309914000.

Date/timePositionNaut miles runAvg speedWind from/ knotsBaromVisibWave heightAir tempDewpointWater temp
2014-Oct-31 07:28N 54°37' W 005°55'0 0.0
2014-Oct-31 06:22N 54°37' W 005°55'0 0.0
2014-Oct-31 04:04N 54°37' W 005°55'0 0.0
2014-Oct-31 03:04N 54°37' W 005°55'0 0.0
2014-Oct-31 02:16N 54°37' W 005°55'0 0.0
2014-Oct-30 23:22N 54°37' W 005°55'0 0.0
2014-Oct-30 17:22N 54°37' W 005°55'0 0.0
2014-Oct-30 10:28N 54°37' W 005°55'0 0.0
2014-Oct-30 08:28N 54°37' W 005°55'0 0.0
2014-Oct-30 07:28N 54°37' W 005°55'0 0.0
2014-Oct-30 05:16N 54°37' W 005°55'0 0.0
2014-Oct-30 04:21N 54°37' W 005°55'0 0.0
2014-Oct-29 23:21N 54°37' W 005°55'0 0.0
2014-Oct-29 17:23N 54°37' W 005°54'0 0.0
2014-Oct-29 16:08N 54°37' W 005°54'0 0.0
2014-Oct-29 12:11N 54°37' W 005°54'0 0.0
2014-Oct-29 11:32N 54°37' W 005°54'0 0.0
2014-Oct-29 10:23N 54°37' W 005°54'0 0.0
2014-Oct-29 06:14N 54°37' W 005°54'0 0.0
2014-Oct-29 05:29N 54°37' W 005°54'0 0.0
2014-Oct-29 04:11N 54°37' W 005°54'0 0.0
2014-Oct-29 03:05N 54°37' W 005°54'0 0.0
2014-Oct-28 23:22N 54°37' W 005°54'3 4.1
2014-Oct-28 22:30N 54°40' W 005°51'6 6.2
2014-Oct-28 21:30N 54°41' W 005°40'0 0.0
2014-Oct-28 20:33N 54°41' W 005°40'0 0.0
2014-Oct-28 19:30N 54°41' W 005°40'0 0.0
2014-Oct-28 18:33N 54°41' W 005°40'0 0.0
2014-Oct-28 17:33N 54°41' W 005°40'0 0.0
2014-Oct-28 16:33N 54°41' W 005°40'0 0.0
2014-Oct-28 15:33N 54°41' W 005°40'0 0.0
2014-Oct-28 14:33N 54°41' W 005°40'0 0.0
2014-Oct-28 13:33N 54°41' W 005°40'0 0.0
2014-Oct-28 12:33N 54°41' W 005°40'0 0.0
2014-Oct-28 11:33N 54°41' W 005°40'0 0.0
2014-Oct-28 10:30N 54°41' W 005°40'0 0.0
2014-Oct-28 09:33N 54°41' W 005°40'0 0.0
2014-Oct-28 08:33N 54°41' W 005°40'0 0.1
2014-Oct-28 07:30N 54°41' W 005°40'0 0.1
2014-Oct-28 06:33N 54°41' W 005°40'0 0.0
2014-Oct-28 05:33N 54°41' W 005°40'0 0.0
2014-Oct-28 04:33N 54°41' W 005°40'0 0.0
2014-Oct-28 03:33N 54°41' W 005°40'0 0.0
2014-Oct-28 02:33N 54°41' W 005°40'0 0.0
2014-Oct-28 01:33N 54°41' W 005°40'0 0.0
2014-Oct-28 00:33N 54°41' W 005°40'0 0.0
2014-Oct-27 23:33N 54°41' W 005°40'0 0.0
2014-Oct-27 22:30N 54°41' W 005°40'0 0.0
2014-Oct-27 21:33N 54°41' W 005°40'0 0.0
2014-Oct-27 20:33N 54°41' W 005°40'0 0.0
2014-Oct-27 19:33N 54°41' W 005°40'0 0.0
2014-Oct-27 18:33N 54°41' W 005°40'2 1.6
2014-Oct-27 17:33N 54°42' W 005°38'9 9.3
2014-Oct-27 16:34N 54°40' W 005°22'1212.2
2014-Oct-27 15:33N 54°28' W 005°15'1111.3
2014-Oct-27 14:33N 54°17' W 005°14'257 7.8
2014-Oct-26 05:27N 50°07' W 003°37'9 9.6
2014-Oct-26 04:33N 50°09' W 003°24'1110.9
2014-Oct-26 03:33N 50°11' W 003°07'1212.0
2014-Oct-26 02:32N 50°13' W 002°48'12010.0
2014-Oct-25 14:31N 50°35' E 000°17'1111.4
2014-Oct-25 13:33N 50°38' E 000°33'1010.5
2014-Oct-25 12:33N 50°44' E 000°47'3010.0
2014-Oct-25 09:32N 51°02' E 001°24'1313.6
2014-Oct-25 08:33N 51°11' E 001°41'1313.2
2014-Oct-25 07:33N 51°22' E 001°52'1211.9
2014-Oct-25 06:33N 51°32' E 002°03'47 9.4
2014-Oct-25 01:33N 52°03' E 003°01'9 9.1
2014-Oct-25 00:33N 52°03' E 003°15'19 9.6
2014-Oct-24 22:33N 52°04' E 003°47'10 9.9
2014-Oct-24 21:33N 52°00' E 004°02'1212.0
2014-Oct-24 20:33N 51°54' E 004°18'1 1.0
2014-Oct-24 19:27N 51°53' E 004°17'0 0.0
2014-Oct-24 18:30N 51°53' E 004°17'0 0.0
2014-Oct-24 17:30N 51°53' E 004°17'0 0.0
2014-Oct-24 16:33N 51°53' E 004°17'0 0.0
2014-Oct-24 15:33N 51°53' E 004°17'0 0.0
2014-Oct-24 14:15N 51°53' E 004°17'0 0.0
2014-Oct-24 13:33N 51°53' E 004°17'0 0.0
2014-Oct-24 12:33N 51°53' E 004°17'0 0.0
2014-Oct-24 11:33N 51°53' E 004°17'0 0.0
2014-Oct-24 10:33N 51°53' E 004°17'0 0.0
2014-Oct-24 09:33N 51°53' E 004°17'3 2.9
2014-Oct-24 08:34N 51°56' E 004°14'8 8.3
2014-Oct-24 07:33N 51°60' E 004°02'9 9.3
2014-Oct-24 06:33N 52°00' E 003°47'6310.3
2014-Oct-24 00:26N 51°42' E 002°09'1012.0
2014-Oct-23 23:34N 51°36' E 001°55'1111.1
2014-Oct-23 22:33N 51°31' E 001°39'10 9.8
2014-Oct-23 21:34N 51°28' E 001°24'9 9.3
2014-Oct-23 20:33N 51°29' E 001°08'10 9.8
2014-Oct-23 19:34N 51°29' E 000°53'1111.1
2014-Oct-23 18:34N 51°30' E 000°35'1010.0
2014-Oct-23 17:34N 51°27' E 000°20'0 0.0
2014-Oct-23 16:34N 51°27' E 000°20'0 0.0
2014-Oct-23 15:34N 51°27' E 000°20'0 0.0
2014-Oct-23 14:34N 51°27' E 000°20'0 0.0
2014-Oct-23 13:34N 51°27' E 000°20'0 0.0
2014-Oct-23 12:34N 51°27' E 000°20'0 0.0
2014-Oct-23 11:34N 51°27' E 000°20'0 0.0
2014-Oct-23 10:34N 51°27' E 000°20'0 0.0
2014-Oct-23 09:34N 51°27' E 000°20'0 0.0
2014-Oct-23 08:34N 51°27' E 000°20'0 0.0
2014-Oct-23 07:34N 51°27' E 000°20'0 0.0
2014-Oct-23 06:34N 51°27' E 000°20'0 0.0
2014-Oct-23 05:34N 51°27' E 000°20'0 0.0
2014-Oct-23 04:34N 51°27' E 000°20'0 0.0
2014-Oct-23 03:34N 51°27' E 000°20'0 0.0
2014-Oct-23 02:34N 51°27' E 000°20'0 0.0
2014-Oct-23 01:34N 51°27' E 000°20'0 0.0
2014-Oct-23 00:34N 51°27' E 000°20'0 0.0
2014-Oct-22 23:34N 51°27' E 000°20'0 0.0
2014-Oct-22 22:34N 51°27' E 000°20'0 0.0
2014-Oct-22 21:34N 51°27' E 000°20'0 0.0
2014-Oct-22 20:34N 51°27' E 000°20'0 0.0
2014-Oct-22 19:34N 51°27' E 000°20'0 0.0
2014-Oct-22 18:33N 51°27' E 000°20'0 0.0
2014-Oct-22 17:34N 51°27' E 000°20'0 0.0
2014-Oct-22 16:33N 51°27' E 000°20'0 0.0
2014-Oct-22 15:33N 51°27' E 000°20'0 0.0
2014-Oct-22 14:33N 51°27' E 000°20'0 0.0
2014-Oct-22 13:33N 51°27' E 000°20'0 0.0
2014-Oct-22 12:33N 51°27' E 000°20'0 0.0
2014-Oct-22 11:33N 51°27' E 000°20'0 0.0
2014-Oct-22 10:33N 51°27' E 000°20'0 0.0
2014-Oct-22 09:33N 51°27' E 000°20'0 0.0
2014-Oct-22 08:33N 51°27' E 000°20'0 0.0
2014-Oct-22 07:33N 51°27' E 000°20'0 0.0
2014-Oct-22 06:33N 51°27' E 000°20'0 0.0
2014-Oct-22 05:33N 51°27' E 000°20'0 0.0
2014-Oct-22 04:33N 51°27' E 000°20'3 2.8
2014-Oct-22 03:34N 51°27' E 000°25'7 7.2
2014-Oct-22 02:34N 51°30' E 000°35'8 8.2
2014-Oct-22 01:34N 51°30' E 000°48'7 6.6
2014-Oct-22 00:33N 51°29' E 000°59'8 7.8
2014-Oct-21 23:34N 51°29' E 001°11'8 7.9
2014-Oct-21 22:33N 51°29' E 001°24'6 6.5
2014-Oct-21 21:33N 51°25' E 001°32'3 2.9
2014-Oct-21 20:34N 51°23' E 001°35'8 7.6
2014-Oct-21 19:33N 51°15' E 001°37'7 7.1
2014-Oct-21 18:33N 51°08' E 001°33'5 5.1
2014-Oct-21 17:33N 51°04' E 001°37'8 8.1
2014-Oct-21 16:32N 50°57' E 001°29'  

Dump ship's entire track history